Regional Weather Roundup
Issued by NWS

Home | Current Version | Previous Version | Text Only | Print | Product List | Glossary On
Versions: 1 2 3 4 5 6 7 8 9 10 11 12 13 14 15 16 17 18 19 20 21 22 23 24 25 26 27 28 29 30 31 32 33 34 35 36 37 38 39 40 41 42 43 44 45 46 47 48 49 50
000
ASCA42 TJSJ 282311
RWRPR
PUERTO RICO/U.S. VIRGIN ISLANDS HOURLY WEATHER ROUNDUP
NATIONAL WEATHER SERVICE SAN JUAN PR
700 PM AST FRI NOV 28 2014

PRZ001-004-290000-
PUERTO RICO

CITY           SKY/WX    TMP DP  RH WIND       PRES   REMARKS
SAN JUAN LMM   CLEAR     79  72  78 E7        29.94R
AGUADILLA      MOCLDY    77  72  83 E5        29.96R
CEIBA          CLEAR     75  70  83 CALM      29.96R
$$

PRZ006-007-290000-
U.S. VIRGIN ISLANDS

CITY           SKY/WX    TMP DP  RH WIND       PRES   REMARKS
CHARLOTTE AMA  PTCLDY    79  72  78 E5        29.93
$$

HOURLY WEATHER ROUNDUP FOR THE NEWS MEDIA

CITY           SKY/WX    TMP DP  RH WIND       PRES   REMARKS
MIAMI          PTCLDY    66  51  58 N6        30.18R
ORLANDO        CLEAR     55  42  61 NE7       30.27R
NEW YORK       PTCLDY    32  12  43 NW9       30.25R WCI  24
NEWARK         PTCLDY    31  12  45 NW12G18   30.24R WCI  22
CHICAGO        CLOUDY    31  25  78 S13       29.97F WCI  21
HARTFORD       CLEAR     31  17  56 NW9       30.13R WCI  23
BOSTON         MOCLDY    31  16  54 NW10      30.14  WCI  22
DALLAS         PTCLDY    69  50  50 S13G23    30.03F
PHILADELPHIA   PTCLDY    35  14  42 NW7       30.27R WCI  29



USA.gov is the U.S. government's official web portal to all federal, state and local government web resources and services.